www.pogodaiklimat.ru

Погода и климат >> Архив погоды >> Россия >> Краснодарский край >> Кущевская


ПОГОДА в Кущевской

  • Прогноз погоды в Кущевской
  • Монитор погоды в Кущевской
  • Климат города

АРХИВ ПОГОДЫ в Кущевской

Время (UTC), дата Ветер
(напр.,м/с)
 
Видим.   Явления Облачность Т
(С)
Тd
(С)
f
(%)
Тe
(С)
Тes
(С)
Комфортность P
(гПа)
Po
(гПа)
Тmin
(С)
Tmax
(С)
R
(мм)
R24
(мм)
S
(см)
03 16.09 ЮВ 2 10 км 9/9 1000 м
[Sc diur, vesp]
+19.1 +15.5 80 +21 +21 комфорт 1010.0 1007.4 +16.7
06 16.09 Ю 4 10 км 8/5 600 м
[Cu med, cong Ac trans]
+22.2 +16.5 70 +26 +27 душно 1009.8 1007.2
09 16.09 Ю 4-11
{11}
10 км 8/6 600 м
[Cb calv Ac trans]
+24.4 +15.3 57 +27 +29 жарко 1008.6 1006.1
12 16.09 Ю 4
{11}
10 км {ливн. осадки} 10/10 600 м
[Cb calv]
+22.6 +16.6 69 +27 +27 душно 1007.1 1004.5
15 16.09 З 3
{11}
4000 м в посл. час ливневой дождь 10/8 600 м
[Cb calv Ci fib]
+19.8 +17.9 89 +23 +23 комфорт 1009.0 1006.4 +26.0 2
18 16.09 З 2
{11}
4000 м в посл. час ливневой дождь 6/6 1000 м
[Sc diur, vesp]
+18.5 +17.4 93 +20 +20 1012.0 1009.5
21 16.09 З 2 10 км 9/9 1000 м
[Sc]
+19.1 +15.7 81 +21 +21 комфорт 1013.8 1011.2
00 17.09 З 1 10 км ясно +16.3 +11.4 73 +17 +17 1015.2 1012.6
03 17.09 З 2 4000 м дымка ясно +13.6 +12.0 90 +13 +13 1016.7 1014.1 +12.7 3
06 17.09 З 3 10 км ясно +17.5 +11.7 69 +18 +21 1018.0 1015.3
09 17.09 СЗ 4
{10}
10 км н/о +20.2 +7.4 43 +21 +21 комфорт 1018.2 1015.6
12 17.09 СЗ 3
{11}
10 км 6/6 600 м
[Cu hum]
+21.0 +7.2 41 +23 +25 комфорт 1018.3 1015.7
15 17.09 СЗ 2
{10}
10 км 3/3 600 м
[Cu hum]
+19.5 +7.2 45 +21 +21 комфорт 1018.3 1016.1 +21.4
18 17.09 З 1 10 км ясно +12.9 +6.1 63 +13 +13 1020.5 1017.8
21 17.09 З 1 10 км ясно +10.0 +4.8 70 +10 +10 1021.5 1018.8
00 18.09 З 1 10 км ясно +8.0 +3.8 75 +7 +7 1021.8 1019.1
03 18.09 штиль 0 4000 м дымка ясно +5.8 +3.8 87 +5 +5 1022.6 1019.9 +5.8
06 18.09 СЗ 1 10 км ясно +16.1 +7.4 56 +17 +22 1023.7 1021.0 +5.4
09 18.09 С 2 10 км ясно +21.9 +4.4 32 +22 +32 комфорт 1023.0 1020.4
12 18.09 СЗ 3 10 км 3/0
[Ci fib]
+23.3 +2.7 26 +23 +28 комфорт 1021.9 1019.3
15 18.09 З 2 10 км 10/0
[Ci fib]
+20.7 +3.9 33 +22 +22 комфорт 1021.2 1018.6 +23.3
18 18.09 З 1 10 км ясно +14.7 +5.5 54 +15 +15 1022.0 1019.3
21 18.09 З 1 10 км ясно +12.7 +6.7 67 +13 +13 1022.2 1019.5
00 19.09 штиль 0 10 км ясно +10.3 +7.5 83 +10 +10 1021.9 1019.2
03 19.09 З 1 4000 м дымка 10/0
[Ci sp]
+9.5 +7.4 87 +9 +9 1022.0 1019.3 +9.5
06 19.09 З 2 10 км ясно +20.1 +10.6 54 +22 +26 комфорт 1022.4 1019.8 +9.5
09 19.09 З 3 10 км ясно +25.6 +7.8 32 +26 +34 жарко 1021.8 1019.3
12 19.09 СЗ 3 10 км ясно +26.6 +6.7 28 +26 +31 жарко 1021.0 1018.5
15 19.09 СЗ 1 10 км ясно +23.8 +7.1 34 +24 +24 комфорт 1021.0 1018.4 +27.0
18 19.09 З 1 10 км ясно +16.5 +9.6 64 +17 +17 1021.9 1019.2
21 19.09 штиль 0 10 км ясно +12.7 +9.5 81 +12 +12 1022.0 1019.3
00 20.09 штиль 0 4000 м дымка ясно +10.1 +8.3 89 +9 +9 1021.8 1019.1
03 20.09 штиль 0 4000 м дымка ясно +9.0 +7.7 92 +8 +8 1022.0 1019.3 +9.0
06 20.09 штиль 0 10 км ясно +19.8 +12.0 61 +21 +27 комфорт 1022.3 1019.7
09 20.09 С 1 10 км ясно +27.6 +7.6 28 +27 +39 жарко 1021.3 1018.8
12 20.09 СЗ 1 10 км ясно +29.1 +6.8 25 +28 +35 жарко 1019.5 1017.0
15 20.09 СЗ 1 10 км ясно +23.6 +8.4 38 +24 +24 комфорт 1018.8 1016.2 +29.4
18 20.09 З 1 10 км ясно +15.9 +9.5 66 +17 +17 1019.3 1016.7
21 20.09 штиль 0 10 км ясно +13.0 +8.7 75 +13 +13 1018.8 1016.1
00 21.09 штиль 0 10 км ясно +10.9 +8.5 85 +10 +10 1018.6 1015.9
03 21.09 Ю 1 4000 м дымка ясно +9.6 +7.3 86 +9 +9 1018.9 1016.2 +9.6
06 21.09 штиль 0 10 км ясно +21.2 +11.5 54 +23 +28 комфорт 1019.2 1016.6
09 21.09 С 1 10 км ясно +29.8 +7.7 25 +29 +40 жарко 1018.8 1016.3
12 21.09 С 1 10 км ясно +31.3 +7.7 23 +30 +37 жарко 1018.8 1015.5
15 21.09 штиль 0 10 км ясно +25.3 +8.9 35 +26 +26 жарко 1017.8 1015.2 +31.4
18 21.09 штиль 0 10 км ясно +17.3 +10.4 64 +17 +17 1018.6 1016.0
21 21.09 ЮВ 1 10 км ясно +15.0 +9.5 70 +16 +16 1018.9 1016.3
00 22.09 штиль 0 10 км ясно +12.5 +8.8 78 +12 +12 1019.2 1016.6
03 22.09 штиль 0 10 км ясно +12.0 +8.6 80 +11 +11 1019.3 1016.6 +11.7
06 22.09 СВ 2 10 км ясно +21.0 +10.1 50 +23 +27 комфорт 1019.4 1016.8
09 22.09 В 2 10 км ясно +28.8 +9.5 30 +29 +38 жарко 1018.4 1015.9
12 22.09 ЮВ 2 10 км ясно +30.4 +7.1 23 +29 +35 жарко 1017.0 1014.5
15 22.09 СВ 1 10 км ясно +26.3 +8.0 31 +26 +26 жарко 1016.3 1013.8 +30.9
18 22.09 В 1 10 км ясно +22.0 +7.5 39 +23 +23 комфорт 1017.0 1014.4
21 22.09 штиль 0 10 км ясно +16.3 +8.0 58 +16 +16 1016.5 1013.9

 

Местоположение метеостанции Кущевская (Краснодарский край, Россия): широта 46.53 долгота 39.62 высота над уровнем моря 22 м.

В архиве по умолчанию представлена погода в Кущевской за последнюю неделю. Архивные данные за месяц целиком и за предыдущие месяцы, начиная с января 2011 года, Вы можете получить, выбрав интересующий диапазон дат из раскрывающегося списка и нажав кнопку "Ввод!".


*Определитесь, кто Вы:
робот инопланетянин человек

Внимание! Время в таблицах - всемирное. Для получения местного времени необходимо прибавить поправку, которая в Кущевской равна 3 ч.

Смотрите также архив погоды в соседних городах и на ближайших метеорологических станциях:

Погода в Староминская (Краснодарский край, Россия) (46 км)
Погода в Сосыке (Краснодарский край, Россия) (47 км)
Погода в Зерноград (Ростовская область, Россия) (64 км)
Погода в Каневской (Краснодарский край, Россия) (72 км)
Погода в Маргаритово (Ростовская область, Россия) (72 км)
Погода в Тихорецке (Краснодарский край, Россия) (84 км)
Погода в Ростове-на-Дону (Ростовская область, Россия) (84 км)
Погода в Таганроге (Ростовская область, Россия) (92 км)
Погода в Ейске (Краснодарский край, Россия) (107 км)
Погода в Белой Глине (Краснодарский край, Россия) (109 км)

Пояснения к столбцам:

Ветер - указаны скорость ветра в м/с - средняя за 10 мин, порывы в срок и между сроками (в фигурных скобках) и направление, откуда дует ветер: С - северный, СВ - северо-восточный, В - восточный, ЮВ - юго-восточный, Ю - южный, ЮЗ - юго-западный, З - западный, СЗ - северо-западный.
Видимость - горизонтальная дальность видимости в метрах или километрах. При видимости от 1 до 10 км при отсутствии осадков обычно наблюдается дымка, при ухудшении видимости до 1 км и менее - туман. В сухую погоду видимость может ухудшаться дымом, пылью или мглою.
Явления - указаны атмосферные явления, наблюдавшиеся в срок или в последний час перед сроком; фигурными скобками обозначены явления, наблюдавшиеся между сроками (за 1-3 часа до срока); квадратными скобками обозначены град или гололедные отложения с указанием их диаметра в мм.
Облачность - указаны через наклонную черту общая и нижняя облачность в баллах и высота нижней границы облаков в метрах; квадратными скобками обозначены формы облаков: Ci - перистые, Cs - перисто-слоистые, Cc - перисто-кучевые, Ac - высококучевые, As - высокослоистые, Sc - слоисто-кучевые, Ns - слоисто-дождевые, Cu - кучевые, Cb - кучево-дождевые. Подробнее классификацию облаков см. в Атласе облаков (PDF).
T - Температура воздуха - температура, измеренная на высоте 2 м над землей.
Td - Температура точки росы - температура, при понижении до которой содержащийся в воздухе водяной пар достигнет насыщения.
f - Относительная влажность воздуха - влажноcть воздуха, измеренная на высоте 2 м над землей.
Te - Эффективная температура - температура, которую ощущает одетый по сезону человек в тени. Характеристика душности погоды. При расчете учитывается влияние влажности воздуха и скорости ветра на теплоощущения человека.
Tes - Эффективная температура на солнце - температура, которую ощущает человек, с поправкой на солнечный нагрев. Характеристика знойности погоды. Зависит от высоты солнца над горизонтом, облачности и скорости ветра. Ночью, в пасмурную погоду, а также при ветре 12 м/с и более поправка равна нулю.
P - Атмосферное давление - приведенное к уровню моря атмосферное давление.
Po - Атмосферное давление - измеренное на уровне метеостанции атмосферное давление.
Tmin - Минимальная температура - минимум температуры воздуха на высоте 2 м над землей.
Tmax - Максимальная температура - максимум температуры воздуха на высоте 2 м над землей.
R - Количество осадков - Количество выпавших осадков за период времени, мм. При наведении курсора мыши на число - период времени, за который выпало указанное количество осадков.
R24 - Количество осадков - Количество выпавших осадков за 24 часа, мм.
S - Снежный покров - Высота снежного покрова, см. При наведении курсора мыши на число - состояние снежного покрова и степень покрытия местности в баллах.